Regional Weather Roundup
Issued by NWS Newport/Morehead, NC

Current Version | Previous Version | Text Only | Print | Product List | Glossary On
Versions: 1 2 3 4 5 6 7 8 9 10 11 12 13 14 15 16 17 18 19 20 21 22 23 24 25 26 27 28 29 30 31 32 33 34 35 36 37 38 39 40 41 42 43 44 45 46 47 48 49 50
000
ASUS42 KMHX 301913
RWRMHX
WEATHER ROUNDUP FOR EASTERN NORTH CAROLINA
NATIONAL WEATHER SERVICE NEWPORT/MOREHEAD CITY NC
300 PM EDT MON MAY 30 2016

NOTE: "FAIR" INDICATES FEW OR NO CLOUDS BELOW 12,000 FEET
WITH NO SIGNIFICANT WEATHER AND/OR OBSTRUCTIONS TO VISIBILITY

NCZ015>017-031-032-045>047-102-103-302000-
NORTH COAST

CITY           SKY/WX    TMP DP  RH WIND       PRES   REMARKS
EDENTON        CLOUDY   N/A N/A N/A SE12      29.98F
ELIZABETH CITY CLOUDY    75  72  90 SE7       29.99S
KITTY HAWK     LGT RAIN  73  72  96 CALM      29.98F
MANTEO         NOT AVBL

$$

NCZ045>047-081-094-103-104-302000-
CENTRAL COAST

CITY           SKY/WX    TMP DP  RH WIND       PRES   REMARKS
FRISCO         HVY RAIN  72  70  93 CALM      29.99F FOG

$$

NCZ095-097-098-100-101-302000-
SOUTHERN COAST

CITY           SKY/WX    TMP DP  RH WIND       PRES   REMARKS
BEAUFORT       CLOUDY    76  74  93 VRB5      29.96F
CEDAR ISLAND   NOT AVBL
JACKSONVILLE   CLOUDY    83  70  64 SE14      29.93F
PINEY ISLAND   RAIN     N/A N/A N/A W7        29.97F VSB 1
WILMINGTON     CLOUDY    79  71  76 SE12      29.92F


$$

NCZ011>013-027>030-043-044-078>080-089-090>093-098-302000-
COASTAL PLAIN

CITY           SKY/WX    TMP DP  RH WIND       PRES   REMARKS
AHOSKIE        CLOUDY    79  69  72 SE5       29.96F
CLINTON        CLOUDY    82  74  74 CALM      29.92F
ELIZABETHTOWN  LGT RAIN  78  73  82 SE6       29.91S
GOLDSBORO      NOT AVBL
GREENVILLE     LGT RAIN  72  72 100 SE10      29.99S
HAVELOCK       CLOUDY    77  70  79 E10       29.97F
KENANSVILLE    MOSUNNY   82  71  68 CALM      29.93F
KINSTON        CLOUDY    81  68  65 E12       29.96S
NEW BERN       CLOUDY    73  69  87 E10       29.98S
RICHLANDS      PTSUNNY   83  71  67 SE8       29.93F
ROCKY MOUNT    LGT RAIN  78  72  81 VRB5      29.95F
WASHINGTON     RAIN      72  70  92 SW12      29.98R
WHITEVILLE     CLOUDY    81  69  67 E8        29.89F

$$

AMZ130-135-150-152-154-156-158-170-250-252-270-ANZ085-086-088-633-658-670-302000-
MARINE OBSERVATIONS

STATION/POSITION TIME  TEMP    WIND        PRES    WAVE   SWELL
                       AIR SEA DIR/SP/G            HT/PER HT/PER
                 (UTC) (F)     (DEG/KT/KT) (MB)    (FT/S) (FT/S)
CHESAPEAKE LIGHT 1900   69     170/  9/  9 1016.2
64 E VA BEACH    1850   66 64  160/  8/ 10 1015.7    6/ 7   5/ 7
DUCK             1800   67 58  150/ 11/ 12 1015.2
2 E DUCK         1811      62                N/A     4/ 7
OREGON INLET     1800   72 75  150/  6/  9 1016.0
13E OREGON INLT  1900      71                N/A     5/ 8   5/ 8
HATTERAS CG      1800   71 75  110/  4/  5 1015.4
DIAMOND BUOY     1850   74 80  160/ 17/ 23 1015.0    6/ 7   2/13
CAPE LOOKOUT     1900   74      10/  3/  4 1014.1
BEAUFORT LAB     1800   72 75   70/  3/  5 1014.4
30 SE NEW RVR IN 1825      76                N/A     6/ 8
27 SE WRIGHTSVLE 1808   79 76  180/ 10/ 14 1013.4
5 SE WRIGHTSVLE  1808   78 77  140/  6/  8 1014.2
225 S CAPE HAT   1850   75 76  180/ 10/ 10 1015.1    5/ 7   5/ 7
41 SE CHARLESTON 1850   74 78  220/ 12/ 14 1012.1    4/ 8   3/ 8

$$




USA.gov is the U.S. government's official web portal to all federal, state and local government web resources and services.